| time (UTC) | temp C | wind direction | speed KPH | gust KPH | rain 1hr cm | rain 24hr cm | rain mn cm | humidity % | barometer mb |
| 20260507223046 | 28 | 132 | 1.6 | 9.7 | 0.00 | 0.00 | 0.00 | 77 | 1014.6 |
| 20260507221523 | 28 | 175 | 3.2 | 8.0 | 0.00 | 0.00 | 0.00 | 77 | 1014.5 |
| 20260507220004 | 28 | 132 | 3.2 | 6.4 | 0.00 | 0.00 | 0.00 | 77 | 1014.5 |
| 20260507214541 | 28 | 140 | 3.2 | 6.4 | 0.00 | 0.00 | 0.00 | 76 | 1014.5 |
| 20260507213029 | 28 | 138 | 3.2 | 6.4 | 0.00 | 0.00 | 0.00 | 74 | 1014.6 |
| 20260507211600 | 28 | 138 | 1.6 | 6.4 | 0.00 | 0.00 | 0.00 | 76 | 1014.7 |
| 20260507211506 | 28 | 138 | 1.6 | 6.4 | 0.00 | 0.00 | 0.00 | 75 | 1014.7 |
| 20260507210050 | 28 | 140 | 3.2 | 8.0 | 0.00 | 0.00 | 0.00 | 74 | 1014.7 |
| 20260507204523 | 28 | 140 | 3.2 | 6.4 | 0.00 | 0.00 | 0.00 | 73 | 1014.9 |
| 20260507203004 | 28 | 144 | 3.2 | 8.0 | 0.00 | 0.00 | 0.00 | 73 | 1015.1 |
| 20260507201543 | 28 | 126 | 1.6 | 4.8 | 0.00 | 0.00 | 0.00 | 73 | 1015.3 |
| 20260507200031 | 30 | 126 | 1.6 | 4.8 | 0.00 | 0.00 | 0.00 | 70 | 1015.5 |
| 20260507194557 | 29 | 127 | 3.2 | 6.4 | 0.00 | 0.00 | 0.00 | 73 | 1015.4 |
| 20260507193034 | 29 | 123 | 1.6 | 9.7 | 0.00 | 0.00 | 0.00 | 69 | 1015.7 |
| 20260507191513 | 28 | 130 | 1.6 | 6.4 | 0.00 | 0.00 | 0.00 | 71 | 1016.0 |
| 20260507184537 | 29 | 109 | 3.2 | 6.4 | 0.00 | 0.00 | 0.00 | 72 | 1016.4 |
| 20260507183016 | 29 | 109 | 1.6 | 9.7 | 0.00 | 0.00 | 0.00 | 71 | 1016.7 |
| 20260507181548 | 30 | 111 | 1.6 | 6.4 | 0.00 | 0.00 | 0.00 | 71 | 1017.0 |
| 20260507180029 | 29 | 115 | 1.6 | 4.8 | 0.00 | 0.00 | 0.00 | 72 | 1017.0 |
| 20260507174511 | 28 | 95 | 3.2 | 11.3 | 0.00 | 0.00 | 0.00 | 74 | 1017.0 |
| 20260507173054 | 28 | 102 | 4.8 | 6.4 | 0.00 | 0.00 | 0.00 | 75 | 1017.2 |
| 20260507171533 | 28 | 105 | 3.2 | 6.4 | 0.00 | 0.00 | 0.00 | 73 | 1017.0 |
| 20260507170012 | 30 | 172 | 1.6 | 6.4 | 0.00 | 0.00 | 0.00 | 71 | 1017.1 |
| 20260507164547 | 30 | 223 | 1.6 | 4.8 | 0.00 | 0.00 | 0.00 | 71 | 1017.2 |
| 20260507163025 | 30 | 273 | 0.0 | 8.0 | 0.00 | 0.00 | 0.00 | 69 | 1017.6 |
| 20260507161507 | 30 | 297 | 3.2 | 16.1 | 0.00 | 0.00 | 0.00 | 62 | 1017.6 |
| 20260507160039 | 30 | 273 | 6.4 | 14.5 | 0.00 | 0.00 | 0.00 | 64 | 1017.7 |
| 20260507154522 | 29 | 242 | 4.8 | 14.5 | 0.00 | 0.00 | 0.00 | 66 | 1017.8 |
| 20260507153058 | 28 | 227 | 3.2 | 14.5 | 0.00 | 0.00 | 0.00 | 66 | 1017.8 |
| 20260507153005 | 28 | 212 | 3.2 | 14.5 | 0.00 | 0.00 | 0.00 | 66 | 1017.9 |
| 20260507151539 | 28 | 305 | 6.4 | 14.5 | 0.00 | 0.00 | 0.00 | 66 | 1018.1 |
| 20260507150019 | 28 | 260 | 9.7 | 16.1 | 0.00 | 0.00 | 0.00 | 66 | 1018.1 |
| 20260507144558 | 28 | 281 | 8.0 | 12.9 | 0.00 | 0.00 | 0.00 | 67 | 1018.4 |
| 20260507143035 | 27 | 298 | 6.4 | 17.7 | 0.00 | 0.00 | 0.00 | 69 | 1018.3 |
| 20260507141510 | 27 | 248 | 8.0 | 17.7 | 0.00 | 0.00 | 0.00 | 69 | 1018.2 |
| 20260507140107 | 27 | 214 | 8.0 | 16.1 | 0.00 | 0.00 | 0.00 | 69 | 1018.2 |
| 20260507134525 | 26 | 270 | 6.4 | 17.7 | 0.00 | 0.00 | 0.00 | 70 | 1018.2 |
| 20260507133005 | 26 | 219 | 3.2 | 12.9 | 0.00 | 0.00 | 0.00 | 73 | 1018.2 |
| 20260507131547 | 25 | 209 | 3.2 | 12.9 | 0.00 | 0.00 | 0.00 | 75 | 1018.3 |
| 20260507130022 | 24 | 227 | 3.2 | 9.7 | 0.00 | 0.00 | 0.00 | 80 | 1018.2 |
| 20260507124614 | 23 | 222 | 4.8 | 9.7 | 0.00 | 0.00 | 0.00 | 82 | 1018.2 |
| 20260507124502 | 23 | 224 | 4.8 | 9.7 | 0.00 | 0.00 | 0.00 | 82 | 1018.2 |
| 20260507123055 | 22 | 219 | 4.8 | 9.7 | 0.00 | 0.00 | 0.00 | 84 | 1018.3 |
| 20260507121537 | 22 | 243 | 0.0 | 6.4 | 0.00 | 0.00 | 0.00 | 87 | 1018.3 |
| 20260507120007 | 21 | 244 | 1.6 | 6.4 | 0.00 | 0.00 | 0.00 | 89 | 1018.3 |
| 20260507114547 | 21 | 254 | 1.6 | 8.0 | 0.00 | 0.00 | 0.00 | 91 | 1018.3 |
| 20260507113033 | 20 | 254 | 1.6 | 6.4 | 0.00 | 0.00 | 0.00 | 91 | 1018.1 |
| 20260507111603 | 20 | 254 | 1.6 | 4.8 | 0.00 | 0.00 | 0.00 | 91 | 1018.0 |
| 20260507111503 | 20 | 254 | 1.6 | 4.8 | 0.00 | 0.00 | 0.00 | 91 | 1018.0 |
| 20260507110041 | 20 | 254 | 3.2 | 6.4 | 0.00 | 0.00 | 0.00 | 91 | 1017.9 |
| 20260507104519 | 20 | 254 | 4.8 | 11.3 | 0.00 | 0.00 | 0.00 | 91 | 1017.6 |
| 20260507103057 | 20 | 245 | 1.6 | 4.8 | 0.00 | 0.00 | 0.00 | 90 | 1017.5 |
| 20260507101544 | 20 | 245 | 3.2 | 6.4 | 0.00 | 0.00 | 0.00 | 90 | 1017.0 |
| 20260507100025 | 20 | 244 | 3.2 | 4.8 | 0.00 | 0.00 | 0.00 | 90 | 1016.7 |
| 20260507094556 | 20 | 245 | 1.6 | 3.2 | 0.00 | 0.00 | 0.00 | 90 | 1016.8 |
| 20260507094502 | 20 | 244 | 1.6 | 3.2 | 0.00 | 0.00 | 0.00 | 90 | 1016.7 |
| 20260507093040 | 20 | 244 | 1.6 | 4.8 | 0.00 | 0.00 | 0.00 | 89 | 1016.8 |
| 20260507091518 | 20 | 244 | 3.2 | 6.4 | 0.00 | 0.00 | 0.00 | 89 | 1016.7 |
| 20260507090100 | 20 | 243 | 1.6 | 4.8 | 0.00 | 0.00 | 0.00 | 89 | 1016.4 |
| 20260507090004 | 20 | 243 | 1.6 | 4.8 | 0.00 | 0.00 | 0.00 | 89 | 1016.4 |
| 20260507084551 | 21 | 244 | 1.6 | 4.8 | 0.00 | 0.00 | 0.00 | 88 | 1016.3 |
| 20260507083036 | 20 | 243 | 3.2 | 4.8 | 0.00 | 0.00 | 0.00 | 88 | 1016.3 |
| 20260507081508 | 20 | 243 | 3.2 | 8.0 | 0.00 | 0.00 | 0.00 | 88 | 1016.3 |
| 20260507080057 | 20 | 254 | 3.2 | 6.4 | 0.00 | 0.00 | 0.00 | 89 | 1016.4 |
| 20260507074529 | 20 | 259 | 3.2 | 6.4 | 0.00 | 0.00 | 0.00 | 89 | 1016.5 |
| 20260507073006 | 20 | 259 | 3.2 | 4.8 | 0.00 | 0.00 | 0.00 | 88 | 1016.7 |
| 20260507071558 | 20 | 259 | 3.2 | 6.4 | 0.00 | 0.00 | 0.00 | 88 | 1016.9 |
| 20260507070024 | 21 | 259 | 4.8 | 9.7 | 0.00 | 0.00 | 0.00 | 88 | 1017.0 |
| 20260507064559 | 21 | 257 | 4.8 | 9.7 | 0.00 | 0.00 | 0.00 | 87 | 1017.1 |
| 20260507063040 | 21 | 255 | 3.2 | 6.4 | 0.00 | 0.00 | 0.00 | 87 | 1017.4 |
| 20260507061514 | 21 | 255 | 3.2 | 6.4 | 0.00 | 0.00 | 0.00 | 86 | 1017.4 |
| 20260507060053 | 21 | 255 | 3.2 | 8.0 | 0.00 | 0.00 | 0.00 | 85 | 1017.5 |
| 20260507054536 | 22 | 254 | 3.2 | 6.4 | 0.00 | 0.00 | 0.00 | 83 | 1017.8 |
| 20260507053010 | 23 | 252 | 6.4 | 11.3 | 0.00 | 0.00 | 0.00 | 80 | 1018.0 |
| 20260507051548 | 25 | 188 | 4.8 | 8.0 | 0.00 | 0.00 | 0.00 | 77 | 1018.2 |
| 20260507050026 | 25 | 146 | 1.6 | 4.8 | 0.00 | 0.00 | 0.00 | 78 | 1018.1 |
| 20260507044505 | 25 | 134 | 1.6 | 6.4 | 0.00 | 0.00 | 0.00 | 78 | 1017.9 |
| 20260507043041 | 25 | 134 | 1.6 | 6.4 | 0.00 | 0.00 | 0.00 | 77 | 1017.7 |
| 20260507041525 | 25 | 134 | 1.6 | 4.8 | 0.00 | 0.00 | 0.00 | 79 | 1017.9 |
| 20260507040013 | 25 | 134 | 1.6 | 4.8 | 0.00 | 0.00 | 0.00 | 79 | 1017.9 |
| 20260507034553 | 25 | 135 | 1.6 | 4.8 | 0.00 | 0.00 | 0.00 | 79 | 1017.8 |
| 20260507033022 | 25 | 136 | 1.6 | 4.8 | 0.00 | 0.00 | 0.00 | 79 | 1017.8 |
| 20260507031602 | 25 | 136 | 1.6 | 4.8 | 0.00 | 0.00 | 0.00 | 79 | 1017.6 |
| 20260507030036 | 25 | 137 | 1.6 | 4.8 | 0.00 | 0.00 | 0.00 | 78 | 1017.9 |
| 20260507024515 | 25 | 138 | 1.6 | 4.8 | 0.00 | 0.00 | 0.00 | 77 | 1017.9 |
| 20260507023052 | 25 | 138 | 1.6 | 6.4 | 0.00 | 0.00 | 0.00 | 76 | 1018.0 |
| 20260507021534 | 25 | 138 | 1.6 | 6.4 | 0.00 | 0.00 | 0.00 | 77 | 1018.1 |
| 20260507020013 | 25 | 140 | 1.6 | 4.8 | 0.00 | 0.00 | 0.00 | 77 | 1018.1 |
| 20260507014602 | 25 | 141 | 1.6 | 4.8 | 0.00 | 0.00 | 0.00 | 75 | 1018.2 |
| 20260507013035 | 25 | 143 | 3.2 | 4.8 | 0.00 | 0.00 | 0.00 | 74 | 1018.2 |
| 20260507011511 | 25 | 142 | 1.6 | 4.8 | 0.00 | 0.00 | 0.00 | 75 | 1018.1 |
| 20260507010044 | 25 | 142 | 1.6 | 4.8 | 0.00 | 0.00 | 0.00 | 73 | 1017.9 |
| 20260507004525 | 25 | 142 | 1.6 | 3.2 | 0.00 | 0.00 | 0.00 | 72 | 1017.8 |
| 20260507003017 | 26 | 142 | 1.6 | 4.8 | 0.00 | 0.00 | 0.00 | 72 | 1017.8 |
| 20260507001605 | 26 | 141 | 1.6 | 4.8 | 0.00 | 0.00 | 0.00 | 71 | 1017.8 |
| 20260507000039 | 26 | 146 | 1.6 | 4.8 | 0.00 | 0.00 | 0.00 | 69 | 1017.6 |
| 20260506234512 | 26 | 150 | 1.6 | 4.8 | 0.00 | 0.00 | 0.00 | 69 | 1017.8 |
| 20260506233056 | 26 | 96 | 1.6 | 4.8 | 0.00 | 0.00 | 0.00 | 67 | 1017.8 |
| 20260506231537 | 27 | 96 | 3.2 | 4.8 | 0.00 | 0.00 | 0.00 | 64 | 1017.7 |
| 20260506230015 | 27 | 96 | 1.6 | 4.8 | 0.00 | 0.00 | 0.00 | 62 | 1017.8 |
| 20260506224552 | 27 | 96 | 1.6 | 4.8 | 0.00 | 0.00 | 0.00 | 60 | 1017.8 |